Wetterdaten: Woche 21.12.20 - 27.12.20 (KW52)
Datum Zeit Temp. Aussen Temp. o. S. Temp +5cm Feuchte Auss Luftdruck Regen Sonnenschein Regendauer Solar Windben Empfang
21.12.2020 00:00 6,7 C 5,6 C 3,7 C 93 % 1021,0 hPa 0,0 l/m 0,00 h 0,00 h 0 W/m 0,6 km/h (0 Bft) 99,36 %
21.12.2020 01:00 6,3 C 5,6 C 3,3 C 94 % 1020,9 hPa 0,0 l/m 0,00 h 0,00 h 0 W/m 2,1 km/h (1 Bft) 97,37 %
21.12.2020 02:00 5,9 C 5,2 C 3,2 C 94 % 1020,9 hPa 0,0 l/m 0,00 h 0,00 h 0 W/m 0,5 km/h (0 Bft) 94,53 %
21.12.2020 03:00 5,4 C 4,7 C 3,1 C 95 % 1020,9 hPa 0,0 l/m 0,00 h 0,00 h 0 W/m 0,5 km/h (0 Bft) 98,86 %
21.12.2020 04:00 5,2 C 4,4 C 3,0 C 95 % 1020,7 hPa 0,0 l/m 0,00 h 0,00 h 0 W/m 0,9 km/h (0 Bft) 97,41 %
21.12.2020 05:00 4,5 C 3,9 C 2,4 C 95 % 1020,6 hPa 0,0 l/m 0,00 h 0,00 h 0 W/m 0,3 km/h (0 Bft) 97,84 %
21.12.2020 06:00 4,4 C 3,9 C 2,7 C 96 % 1019,9 hPa 0,0 l/m 0,00 h 0,00 h 0 W/m 2,5 km/h (1 Bft) 98,75 %
21.12.2020 07:00 4,7 C 4,4 C 3,1 C 96 % 1019,7 hPa 0,0 l/m 0,00 h 0,00 h 0 W/m 1,5 km/h (1 Bft) 98,14 %
21.12.2020 08:00 5,2 C 4,9 C 3,4 C 95 % 1019,6 hPa 0,0 l/m 0,00 h 0,00 h 5 W/m 1,0 km/h (0 Bft) 96,99 %
21.12.2020 09:00 5,8 C 5,6 C 4,1 C 95 % 1019,3 hPa 0,0 l/m 0,00 h 0,00 h 15 W/m 3,3 km/h (1 Bft) 94,15 %
21.12.2020 10:00 6,5 C 6,3 C 4,8 C 94 % 1019,0 hPa 0,0 l/m 0,00 h 0,00 h 24 W/m 4,0 km/h (1 Bft) 96,86 %
21.12.2020 11:00 7,2 C 7,0 C 5,7 C 94 % 1018,1 hPa 0,0 l/m 0,00 h 0,33 h 70 W/m 2,7 km/h (1 Bft) 98,79 %
21.12.2020 12:00 7,8 C 6,8 C 5,4 C 94 % 1016,8 hPa 0,2 l/m 0,00 h 0,73 h 34 W/m 3,3 km/h (1 Bft) 97,89 %
21.12.2020 13:00 8,0 C 6,7 C 5,5 C 95 % 1015,8 hPa 0,8 l/m 0,00 h 0,93 h 26 W/m 5,5 km/h (1 Bft) 97,51 %
21.12.2020 14:00 7,8 C 6,7 C 5,5 C 96 % 1014,5 hPa 0,4 l/m 0,00 h 0,90 h 22 W/m 7,7 km/h (2 Bft) 97,10 %
21.12.2020 15:00 7,7 C 6,7 C 5,5 C 97 % 1013,4 hPa 0,6 l/m 0,00 h 0,60 h 8 W/m 10,2 km/h (2 Bft) 97,80 %
21.12.2020 16:00 7,6 C 6,7 C 5,5 C 98 % 1012,4 hPa 0,4 l/m 0,00 h 0,47 h 5 W/m 11,1 km/h (2 Bft) 94,21 %
21.12.2020 17:00 7,6 C 6,7 C 5,5 C 98 % 1011,7 hPa 1,4 l/m 0,00 h 0,87 h 0 W/m 9,4 km/h (2 Bft) 95,82 %
21.12.2020 18:00 7,6 C 6,7 C 5,8 C 99 % 1010,9 hPa 0,8 l/m 0,00 h 0,50 h 0 W/m 13,6 km/h (3 Bft) 98,38 %
21.12.2020 19:00 7,8 C 6,9 C 6,1 C 99 % 1010,4 hPa 0,4 l/m 0,00 h 0,07 h 0 W/m 4,8 km/h (1 Bft) 98,01 %
21.12.2020 20:00 8,0 C 7,2 C 6,1 C 100 % 1010,1 hPa 0,0 l/m 0,00 h 0,23 h 0 W/m 4,2 km/h (1 Bft) 98,14 %
21.12.2020 21:00 8,2 C 7,4 C 6,6 C 100 % 1009,7 hPa 1,2 l/m 0,00 h 0,33 h 0 W/m 1,4 km/h (1 Bft) 98,36 %
21.12.2020 22:00 8,9 C 8,3 C 7,3 C 100 % 1009,4 hPa 0,0 l/m 0,00 h 0,03 h 0 W/m 0,2 km/h (0 Bft) 97,39 %
21.12.2020 23:00 10,5 C 10,1 C 8,8 C 100 % 1009,1 hPa 0,0 l/m 0,00 h 0,00 h 0 W/m 17,4 km/h (3 Bft) 97,26 %
22.12.2020 00:00 11,7 C 11,6 C 9,7 C 100 % 1008,8 hPa 0,2 l/m 0,00 h 0,10 h 0 W/m 30,5 km/h (5 Bft) 97,90 %
22.12.2020 01:00 12,8 C 12,6 C 10,4 C 97 % 1008,4 hPa 0,0 l/m 0,00 h 0,00 h 0 W/m 38,1 km/h (5 Bft) 98,08 %
22.12.2020 02:00 13,5 C 12,8 C 11,1 C 94 % 1008,4 hPa 0,0 l/m 0,00 h 0,00 h 0 W/m 48,1 km/h (6 Bft) 99,00 %
22.12.2020 03:00 13,4 C 12,7 C 11,2 C 95 % 1008,4 hPa 0,0 l/m 0,00 h 0,00 h 0 W/m 49,1 km/h (6 Bft) 95,36 %
22.12.2020 04:00 13,7 C 13,0 C 11,6 C 94 % 1008,5 hPa 0,0 l/m 0,00 h 0,00 h 0 W/m 47,4 km/h (6 Bft) 96,26 %
22.12.2020 05:00 13,6 C 12,8 C 11,6 C 94 % 1008,7 hPa 0,0 l/m 0,00 h 0,00 h 0 W/m 45,6 km/h (6 Bft) 97,24 %
22.12.2020 06:00 13,6 C 12,5 C 11,2 C 96 % 1009,3 hPa 0,0 l/m 0,00 h 0,17 h 0 W/m 37,5 km/h (5 Bft) 97,50 %
22.12.2020 07:00 13,5 C 12,7 C 11,2 C 96 % 1009,8 hPa 0,0 l/m 0,00 h 0,63 h 0 W/m 34,2 km/h (5 Bft) 98,45 %
22.12.2020 08:00 13,5 C 12,8 C 11,5 C 94 % 1010,4 hPa 0,0 l/m 0,00 h 0,00 h 5 W/m 35,0 km/h (5 Bft) 98,01 %
22.12.2020 09:00 13,6 C 13,1 C 11,6 C 93 % 1011,3 hPa 0,0 l/m 0,00 h 0,00 h 16 W/m 29,7 km/h (5 Bft) 97,93 %
22.12.2020 10:00 13,7 C 12,6 C 11,0 C 93 % 1012,3 hPa 0,0 l/m 0,03 h 0,27 h 59 W/m 23,7 km/h (4 Bft) 99,34 %
22.12.2020 11:00 13,9 C 13,5 C 11,9 C 92 % 1012,9 hPa 0,0 l/m 0,03 h 0,00 h 88 W/m 17,9 km/h (3 Bft) 96,12 %
22.12.2020 12:00 14,2 C 14,9 C 12,5 C 89 % 1013,3 hPa 0,0 l/m 0,50 h 0,00 h 191 W/m 32,1 km/h (5 Bft) 96,20 %
22.12.2020 13:00 14,2 C 13,8 C 11,7 C 85 % 1013,6 hPa 0,0 l/m 0,03 h 0,00 h 90 W/m 23,8 km/h (4 Bft) 98,23 %
22.12.2020 14:00 13,9 C 13,8 C 11,5 C 86 % 1013,9 hPa 0,0 l/m 0,50 h 0,00 h 110 W/m 22,4 km/h (4 Bft) 99,15 %
22.12.2020 15:00 13,6 C 12,8 C 10,4 C 87 % 1014,3 hPa 0,0 l/m 0,00 h 0,00 h 21 W/m 9,3 km/h (2 Bft) 96,59 %
22.12.2020 16:00 13,0 C 12,2 C 9,9 C 90 % 1014,7 hPa 0,0 l/m 0,00 h 0,00 h 5 W/m 0,6 km/h (0 Bft) 96,28 %
22.12.2020 17:00 12,6 C 11,5 C 9,2 C 91 % 1014,8 hPa 0,0 l/m 0,00 h 0,00 h 0 W/m 0,1 km/h (0 Bft) 99,64 %
22.12.2020 18:00 12,1 C 11,0 C 8,8 C 92 % 1014,7 hPa 0,0 l/m 0,00 h 0,00 h 0 W/m 0,0 km/h (0 Bft) 98,00 %
22.12.2020 19:00 11,7 C 10,6 C 8,8 C 94 % 1014,9 hPa 0,0 l/m 0,00 h 0,00 h 0 W/m 0,0 km/h (0 Bft) 96,34 %
22.12.2020 20:00 11,3 C 10,1 C 8,3 C 95 % 1014,9 hPa 0,0 l/m 0,00 h 0,20 h 0 W/m 0,0 km/h (0 Bft) 97,94 %
22.12.2020 21:00 10,9 C 9,8 C 8,3 C 95 % 1014,5 hPa 0,0 l/m 0,00 h 0,00 h 0 W/m 0,0 km/h (0 Bft) 96,42 %
22.12.2020 22:00 10,8 C 9,9 C 8,3 C 96 % 1014,6 hPa 0,6 l/m 0,00 h 0,57 h 0 W/m 0,0 km/h (0 Bft) 97,34 %
22.12.2020 23:00 11,2 C 10,4 C 8,7 C 97 % 1014,7 hPa 0,4 l/m 0,00 h 0,50 h 0 W/m 0,1 km/h (0 Bft) 96,35 %
23.12.2020 00:00 11,4 C 10,5 C 8,8 C 98 % 1014,4 hPa 0,0 l/m 0,00 h 0,03 h 0 W/m 1,3 km/h (1 Bft) 98,82 %
23.12.2020 01:00 11,1 C 10,0 C 8,8 C 99 % 1014,0 hPa 0,0 l/m 0,00 h 0,00 h 0 W/m 0,7 km/h (0 Bft) 97,91 %
23.12.2020 02:00 11,0 C 10,0 C 8,8 C 99 % 1014,0 hPa 0,0 l/m 0,00 h 0,00 h 0 W/m 0,0 km/h (0 Bft) 98,51 %
23.12.2020 03:00 10,8 C 10,0 C 8,6 C 99 % 1013,6 hPa 0,0 l/m 0,00 h 0,00 h 0 W/m 0,1 km/h (0 Bft) 98,22 %
23.12.2020 04:00 10,7 C 10,0 C 8,8 C 99 % 1013,2 hPa 0,4 l/m 0,00 h 0,60 h 0 W/m 0,7 km/h (0 Bft) 96,16 %
23.12.2020 05:00 10,8 C 10,0 C 8,8 C 100 % 1012,9 hPa 2,0 l/m 0,00 h 0,83 h 0 W/m 0,2 km/h (0 Bft) 97,17 %
23.12.2020 06:00 10,8 C 10,0 C 8,8 C 100 % 1012,5 hPa 0,2 l/m 0,00 h 0,30 h 0 W/m 0,2 km/h (0 Bft) 95,56 %
23.12.2020 07:00 10,8 C 10,0 C 8,8 C 100 % 1012,0 hPa 0,0 l/m 0,00 h 0,00 h 0 W/m 0,1 km/h (0 Bft) 97,47 %
23.12.2020 08:00 10,9 C 10,0 C 8,8 C 100 % 1011,9 hPa 0,0 l/m 0,00 h 0,00 h 5 W/m 0,0 km/h (0 Bft) 99,22 %
23.12.2020 09:00 10,7 C 10,0 C 8,8 C 100 % 1011,7 hPa 0,0 l/m 0,00 h 0,00 h 11 W/m 0,4 km/h (0 Bft) 97,30 %
23.12.2020 10:00 10,7 C 10,1 C 9,2 C 100 % 1011,4 hPa 0,2 l/m 0,00 h 0,40 h 33 W/m 0,1 km/h (0 Bft) 98,45 %
23.12.2020 11:00 11,1 C 10,6 C 9,5 C 100 % 1010,5 hPa 0,2 l/m 0,00 h 0,00 h 45 W/m 0,0 km/h (0 Bft) 99,08 %
23.12.2020 12:00 11,3 C 10,6 C 9,5 C 100 % 1009,6 hPa 3,0 l/m 0,00 h 0,67 h 15 W/m 0,3 km/h (0 Bft) 97,68 %
23.12.2020 13:00 11,3 C 10,6 C 9,6 C 100 % 1009,2 hPa 2,4 l/m 0,00 h 1,00 h 10 W/m 5,0 km/h (1 Bft) 99,08 %
23.12.2020 14:00 11,3 C 10,5 C 9,6 C 100 % 1007,8 hPa 0,6 l/m 0,00 h 0,40 h 15 W/m 5,8 km/h (2 Bft) 97,67 %
23.12.2020 15:00 11,1 C 10,5 C 9,4 C 100 % 1007,2 hPa 0,0 l/m 0,00 h 0,20 h 16 W/m 2,1 km/h (1 Bft) 97,74 %
23.12.2020 16:00 11,2 C 10,6 C 9,4 C 100 % 1006,8 hPa 0,2 l/m 0,00 h 0,07 h 7 W/m 4,5 km/h (1 Bft) 99,22 %
23.12.2020 17:00 11,2 C 10,1 C 9,4 C 100 % 1006,8 hPa 1,4 l/m 0,00 h 0,17 h 0 W/m 7,0 km/h (2 Bft) 95,08 %
23.12.2020 18:00 10,8 C 9,8 C 9,0 C 100 % 1006,6 hPa 0,0 l/m 0,00 h 0,00 h 0 W/m 5,3 km/h (1 Bft) 96,58 %
23.12.2020 19:00 10,8 C 10,2 C 9,2 C 100 % 1006,5 hPa 0,0 l/m 0,00 h 0,00 h 0 W/m 7,0 km/h (2 Bft) 97,29 %
23.12.2020 20:00 11,2 C 10,8 C 9,4 C 99 % 1006,4 hPa 0,0 l/m 0,00 h 0,00 h 0 W/m 16,4 km/h (3 Bft) 94,46 %
23.12.2020 21:00 11,4 C 10,9 C 9,4 C 96 % 1006,4 hPa 0,0 l/m 0,00 h 0,30 h 0 W/m 22,7 km/h (4 Bft) 97,51 %
23.12.2020 22:00 11,3 C 10,6 C 8,8 C 91 % 1006,7 hPa 0,2 l/m 0,00 h 0,07 h 0 W/m 21,6 km/h (4 Bft) 96,37 %
23.12.2020 23:00 10,8 C 10,1 C 8,3 C 86 % 1007,1 hPa 0,0 l/m 0,00 h 0,00 h 0 W/m 17,0 km/h (3 Bft) 94,87 %
24.12.2020 00:00 10,0 C 9,3 C 8,0 C 85 % 1007,2 hPa 0,0 l/m 0,00 h 0,00 h 0 W/m 30,9 km/h (5 Bft) 99,56 %
24.12.2020 01:00 9,3 C 8,6 C 7,2 C 84 % 1007,0 hPa 0,0 l/m 0,00 h 0,00 h 0 W/m 24,4 km/h (4 Bft) 97,44 %
24.12.2020 02:00 9,1 C 8,3 C 6,7 C 84 % 1006,6 hPa 0,0 l/m 0,00 h 0,00 h 0 W/m 25,0 km/h (4 Bft) 98,09 %
24.12.2020 03:00 9,0 C 8,2 C 6,3 C 84 % 1006,5 hPa 0,0 l/m 0,00 h 0,20 h 0 W/m 30,5 km/h (5 Bft) 99,36 %
24.12.2020 04:00 8,7 C 7,9 C 6,0 C 85 % 1006,3 hPa 0,0 l/m 0,00 h 0,03 h 0 W/m 27,0 km/h (4 Bft) 94,09 %
24.12.2020 05:00 8,1 C 6,6 C 4,7 C 89 % 1006,2 hPa 0,4 l/m 0,00 h 0,57 h 0 W/m 14,1 km/h (3 Bft) 98,72 %
24.12.2020 06:00 7,6 C 6,3 C 4,7 C 93 % 1006,1 hPa 0,2 l/m 0,00 h 0,27 h 0 W/m 9,9 km/h (2 Bft) 99,63 %
24.12.2020 07:00 7,4 C 6,1 C 4,9 C 95 % 1006,2 hPa 0,0 l/m 0,00 h 0,00 h 0 W/m 3,6 km/h (1 Bft) 96,16 %
24.12.2020 08:00 7,3 C 6,2 C 4,9 C 95 % 1006,9 hPa 0,2 l/m 0,00 h 0,13 h 0 W/m 0,4 km/h (0 Bft) 98,15 %
24.12.2020 09:00 6,1 C 4,4 C 3,7 C 95 % 1008,3 hPa 0,2 l/m 0,00 h 0,57 h 13 W/m 4,3 km/h (1 Bft) 98,66 %
24.12.2020 10:00 4,8 C 3,9 C 3,3 C 96 % 1009,8 hPa 0,2 l/m 0,00 h 0,40 h 33 W/m 2,1 km/h (1 Bft) 96,77 %
24.12.2020 11:00 4,6 C 3,9 C 3,3 C 96 % 1011,2 hPa 0,0 l/m 0,00 h 0,00 h 44 W/m 5,0 km/h (1 Bft) 96,74 %
24.12.2020 12:00 4,5 C 3,9 C 3,3 C 96 % 1011,8 hPa 0,2 l/m 0,00 h 0,67 h 36 W/m 7,3 km/h (2 Bft) 95,66 %
24.12.2020 13:00 4,7 C 4,0 C 3,4 C 97 % 1012,1 hPa 0,2 l/m 0,00 h 0,43 h 38 W/m 3,4 km/h (1 Bft) 95,83 %
24.12.2020 14:00 5,0 C 4,4 C 3,8 C 98 % 1012,5 hPa 0,0 l/m 0,00 h 0,00 h 37 W/m 5,5 km/h (1 Bft) 97,45 %
24.12.2020 15:00 5,2 C 4,4 C 3,8 C 98 % 1012,8 hPa 0,0 l/m 0,00 h 0,00 h 19 W/m 3,0 km/h (1 Bft) 97,22 %
24.12.2020 16:00 5,1 C 4,4 C 3,8 C 98 % 1013,4 hPa 0,0 l/m 0,00 h 0,00 h 7 W/m 1,3 km/h (1 Bft) 97,71 %
24.12.2020 17:00 5,0 C 4,2 C 3,6 C 97 % 1013,8 hPa 0,0 l/m 0,00 h 0,00 h 0 W/m 5,5 km/h (1 Bft) 97,69 %
24.12.2020 18:00 4,7 C 3,9 C 3,2 C 97 % 1014,3 hPa 0,0 l/m 0,00 h 0,00 h 0 W/m 8,1 km/h (2 Bft) 99,27 %
24.12.2020 19:00 4,3 C 3,6 C 2,8 C 96 % 1015,1 hPa 0,0 l/m 0,00 h 0,00 h 0 W/m 9,4 km/h (2 Bft) 96,08 %
24.12.2020 20:00 4,0 C 3,5 C 2,7 C 96 % 1015,6 hPa 0,0 l/m 0,00 h 0,10 h 0 W/m 5,4 km/h (1 Bft) 97,93 %
24.12.2020 21:00 4,2 C 3,3 C 2,7 C 96 % 1016,2 hPa 0,2 l/m 0,00 h 0,10 h 0 W/m 9,8 km/h (2 Bft) 99,57 %
24.12.2020 22:00 4,1 C 3,5 C 2,7 C 96 % 1016,8 hPa 0,0 l/m 0,00 h 0,03 h 0 W/m 5,4 km/h (1 Bft) 96,37 %
24.12.2020 23:00 4,3 C 3,4 C 2,8 C 96 % 1017,5 hPa 0,0 l/m 0,00 h 0,10 h 0 W/m 4,7 km/h (1 Bft) 98,79 %
25.12.2020 00:00 4,2 C 3,7 C 3,1 C 96 % 1018,3 hPa 0,0 l/m 0,00 h 0,00 h 0 W/m 2,3 km/h (1 Bft) 99,56 %
25.12.2020 01:00 4,1 C 3,8 C 3,3 C 96 % 1018,8 hPa 0,0 l/m 0,00 h 0,00 h 0 W/m 4,7 km/h (1 Bft) 95,00 %
25.12.2020 02:00 3,9 C 3,3 C 2,8 C 95 % 1019,5 hPa 0,0 l/m 0,00 h 0,00 h 0 W/m 5,9 km/h (2 Bft) 97,26 %
25.12.2020 03:00 3,6 C 3,1 C 2,6 C 94 % 1020,3 hPa 0,0 l/m 0,00 h 0,00 h 0 W/m 4,6 km/h (1 Bft) 97,20 %
25.12.2020 04:00 3,0 C 2,0 C 1,7 C 94 % 1021,0 hPa 0,0 l/m 0,00 h 0,00 h 0 W/m 1,8 km/h (1 Bft) 93,45 %
25.12.2020 05:00 2,2 C 1,2 C 0,8 C 94 % 1021,6 hPa 0,0 l/m 0,00 h 0,00 h 0 W/m 0,4 km/h (0 Bft) 97,36 %
25.12.2020 06:00 1,6 C 0,7 C 0,2 C 95 % 1022,1 hPa 0,0 l/m 0,00 h 0,00 h 0 W/m 0,0 km/h (0 Bft) 97,11 %
25.12.2020 07:00 1,4 C 0,9 C 0,5 C 96 % 1022,8 hPa 0,0 l/m 0,00 h 0,00 h 0 W/m 0,0 km/h (0 Bft) 96,96 %
25.12.2020 08:00 1,4 C 1,0 C 0,5 C 96 % 1023,5 hPa 0,0 l/m 0,00 h 0,00 h 5 W/m 0,3 km/h (0 Bft) 99,19 %
25.12.2020 09:00 1,2 C 0,9 C 0,5 C 97 % 1023,8 hPa 0,0 l/m 0,00 h 0,00 h 24 W/m 0,1 km/h (0 Bft) 97,98 %
25.12.2020 10:00 2,2 C 2,4 C 2,1 C 98 % 1024,1 hPa 0,0 l/m 0,00 h 0,00 h 46 W/m 1,2 km/h (1 Bft) 97,94 %
25.12.2020 11:00 3,1 C 4,8 C 3,1 C 98 % 1024,4 hPa 0,0 l/m 0,30 h 0,00 h 115 W/m 4,0 km/h (1 Bft) 97,53 %
25.12.2020 12:00 3,7 C 5,1 C 4,2 C 95 % 1024,3 hPa 0,0 l/m 0,23 h 0,00 h 128 W/m 9,5 km/h (2 Bft) 96,34 %
25.12.2020 13:00 5,2 C 9,0 C 6,6 C 92 % 1024,0 hPa 0,0 l/m 0,80 h 0,00 h 230 W/m 11,9 km/h (2 Bft) 97,87 %
25.12.2020 14:00 5,8 C 7,1 C 6,3 C 86 % 1023,9 hPa 0,0 l/m 0,43 h 0,00 h 119 W/m 11,9 km/h (2 Bft) 95,70 %
25.12.2020 15:00 5,1 C 4,6 C 3,5 C 85 % 1024,0 hPa 0,0 l/m 0,10 h 0,00 h 30 W/m 5,5 km/h (1 Bft) 98,95 %
25.12.2020 16:00 4,4 C 3,4 C 2,5 C 89 % 1024,5 hPa 0,0 l/m 0,00 h 0,00 h 10 W/m 4,5 km/h (1 Bft) 97,92 %
25.12.2020 17:00 3,4 C 2,3 C 1,2 C 89 % 1024,9 hPa 0,0 l/m 0,00 h 0,00 h 0 W/m 0,1 km/h (0 Bft) 98,23 %
25.12.2020 18:00 2,6 C 1,5 C 0,5 C 91 % 1025,3 hPa 0,0 l/m 0,00 h 0,00 h 0 W/m 0,0 km/h (0 Bft) 98,25 %
25.12.2020 19:00 1,9 C 1,1 C 0,3 C 93 % 1025,5 hPa 0,0 l/m 0,00 h 0,00 h 0 W/m 0,0 km/h (0 Bft) 98,81 %
25.12.2020 20:00 1,9 C 1,6 C 0,8 C 94 % 1025,6 hPa 0,0 l/m 0,00 h 0,00 h 0 W/m 0,0 km/h (0 Bft) 97,87 %
25.12.2020 21:00 2,0 C 1,7 C 1,0 C 95 % 1025,7 hPa 0,0 l/m 0,00 h 0,00 h 0 W/m 0,0 km/h (0 Bft) 96,09 %
25.12.2020 22:00 2,3 C 2,0 C 1,2 C 96 % 1025,4 hPa 0,0 l/m 0,00 h 0,00 h 0 W/m 0,0 km/h (0 Bft) 97,50 %
25.12.2020 23:00 2,2 C 1,5 C 0,9 C 96 % 1025,5 hPa 0,0 l/m 0,00 h 0,00 h 0 W/m 0,0 km/h (0 Bft) 94,73 %
26.12.2020 00:00 1,9 C 1,3 C 0,7 C 96 % 1025,6 hPa 0,0 l/m 0,00 h 0,00 h 0 W/m 1,1 km/h (1 Bft) 97,08 %
26.12.2020 01:00 1,9 C 1,4 C 0,9 C 96 % 1025,6 hPa 0,0 l/m 0,00 h 0,00 h 0 W/m 1,8 km/h (1 Bft) 99,15 %
26.12.2020 02:00 1,8 C 1,1 C 0,6 C 96 % 1025,7 hPa 0,0 l/m 0,00 h 0,00 h 0 W/m 1,0 km/h (0 Bft) 95,88 %
26.12.2020 03:00 1,8 C 1,4 C 1,0 C 97 % 1025,6 hPa 0,0 l/m 0,00 h 0,00 h 0 W/m 3,1 km/h (1 Bft) 98,00 %
26.12.2020 04:00 1,9 C 1,7 C 1,1 C 97 % 1025,3 hPa 0,0 l/m 0,00 h 0,00 h 0 W/m 1,6 km/h (1 Bft) 97,48 %
26.12.2020 05:00 2,3 C 1,9 C 1,3 C 97 % 1024,8 hPa 0,0 l/m 0,00 h 0,00 h 0 W/m 1,9 km/h (1 Bft) 96,09 %
26.12.2020 06:00 2,3 C 1,7 C 1,1 C 97 % 1024,2 hPa 0,0 l/m 0,00 h 0,00 h 0 W/m 1,8 km/h (1 Bft) 99,01 %
26.12.2020 07:00 1,9 C 1,1 C 0,5 C 97 % 1024,1 hPa 0,0 l/m 0,00 h 0,00 h 0 W/m 2,2 km/h (1 Bft) 98,00 %
26.12.2020 08:00 1,8 C 1,1 C 0,5 C 97 % 1024,4 hPa 0,0 l/m 0,00 h 0,00 h 4 W/m 7,2 km/h (2 Bft) 97,15 %
26.12.2020 09:00 1,9 C 1,7 C 1,0 C 97 % 1024,5 hPa 0,0 l/m 0,00 h 0,00 h 21 W/m 13,9 km/h (3 Bft) 96,47 %
26.12.2020 10:00 2,4 C 2,6 C 2,0 C 96 % 1024,1 hPa 0,2 l/m 0,00 h 0,00 h 65 W/m 18,6 km/h (3 Bft) 94,99 %
26.12.2020 11:00 3,2 C 3,5 C 2,7 C 92 % 1023,5 hPa 0,0 l/m 0,20 h 0,00 h 107 W/m 21,1 km/h (4 Bft) 96,72 %
26.12.2020 12:00 4,6 C 6,1 C 4,5 C 86 % 1022,5 hPa 0,0 l/m 0,67 h 0,00 h 219 W/m 13,9 km/h (3 Bft) 97,93 %
26.12.2020 13:00 4,9 C 4,5 C 3,1 C 84 % 1021,5 hPa 0,0 l/m 0,00 h 0,00 h 71 W/m 22,3 km/h (4 Bft) 96,81 %
26.12.2020 14:00 4,9 C 4,4 C 2,7 C 85 % 1020,3 hPa 0,0 l/m 0,00 h 0,00 h 34 W/m 18,0 km/h (3 Bft) 98,15 %
26.12.2020 15:00 5,0 C 4,4 C 2,4 C 86 % 1019,7 hPa 0,0 l/m 0,00 h 0,00 h 14 W/m 20,5 km/h (4 Bft) 95,84 %
26.12.2020 16:00 5,0 C 4,4 C 2,2 C 86 % 1018,9 hPa 0,0 l/m 0,00 h 0,00 h 5 W/m 23,4 km/h (4 Bft) 96,22 %
26.12.2020 17:00 4,8 C 4,4 C 1,9 C 86 % 1017,7 hPa 0,0 l/m 0,00 h 0,00 h 0 W/m 28,5 km/h (4 Bft) 98,94 %
26.12.2020 18:00 4,7 C 4,1 C 1,6 C 86 % 1016,4 hPa 0,0 l/m 0,00 h 0,00 h 0 W/m 27,4 km/h (4 Bft) 98,86 %
26.12.2020 19:00 4,5 C 4,0 C 1,5 C 86 % 1015,4 hPa 0,0 l/m 0,00 h 0,00 h 0 W/m 26,0 km/h (4 Bft) 94,96 %
26.12.2020 20:00 4,4 C 3,9 C 1,5 C 87 % 1014,2 hPa 0,0 l/m 0,00 h 0,10 h 0 W/m 28,2 km/h (4 Bft) 98,52 %
26.12.2020 21:00 4,6 C 4,0 C 1,6 C 86 % 1013,1 hPa 0,0 l/m 0,00 h 0,07 h 0 W/m 32,8 km/h (5 Bft) 98,30 %
26.12.2020 22:00 4,8 C 4,3 C 1,6 C 86 % 1011,7 hPa 0,0 l/m 0,00 h 0,03 h 0 W/m 30,6 km/h (5 Bft) 95,35 %
26.12.2020 23:00 4,8 C 4,4 C 1,6 C 85 % 1010,1 hPa 0,0 l/m 0,00 h 0,00 h 0 W/m 36,4 km/h (5 Bft) 98,47 %
27.12.2020 00:00 4,8 C 4,4 C 1,6 C 85 % 1008,2 hPa 0,0 l/m 0,00 h 0,00 h 0 W/m 33,6 km/h (5 Bft) 95,81 %
27.12.2020 01:00 4,7 C 4,2 C 1,5 C 85 % 1006,2 hPa 0,0 l/m 0,00 h 0,00 h 0 W/m 41,6 km/h (6 Bft) 98,16 %
27.12.2020 02:00 4,5 C 4,0 C 1,2 C 84 % 1004,5 hPa 0,0 l/m 0,00 h 0,00 h 0 W/m 41,5 km/h (6 Bft) 99,50 %
27.12.2020 03:00 4,8 C 4,4 C 1,6 C 83 % 1002,5 hPa 0,0 l/m 0,00 h 0,00 h 0 W/m 39,2 km/h (6 Bft) 95,96 %
27.12.2020 04:00 4,9 C 4,4 C 1,5 C 82 % 1000,2 hPa 0,0 l/m 0,00 h 0,00 h 0 W/m 34,8 km/h (5 Bft) 97,13 %
27.12.2020 05:00 4,8 C 4,4 C 1,6 C 83 % 998,1 hPa 0,0 l/m 0,00 h 0,00 h 0 W/m 28,6 km/h (4 Bft) 97,90 %
27.12.2020 06:00 5,0 C 4,6 C 1,7 C 84 % 996,3 hPa 0,0 l/m 0,00 h 0,00 h 0 W/m 34,5 km/h (5 Bft) 96,01 %
27.12.2020 07:00 5,6 C 5,1 C 2,2 C 83 % 994,5 hPa 0,0 l/m 0,00 h 0,00 h 0 W/m 40,0 km/h (6 Bft) 98,80 %
27.12.2020 08:00 6,0 C 5,6 C 2,6 C 82 % 992,6 hPa 0,0 l/m 0,00 h 0,00 h 0 W/m 43,8 km/h (6 Bft) 96,84 %
27.12.2020 09:00 6,3 C 5,6 C 2,7 C 80 % 990,8 hPa 0,0 l/m 0,00 h 0,23 h 8 W/m 42,2 km/h (6 Bft) 97,20 %
27.12.2020 10:00 5,8 C 3,9 C 0,9 C 84 % 988,9 hPa 0,4 l/m 0,00 h 1,00 h 12 W/m 33,4 km/h (5 Bft) 99,50 %
27.12.2020 11:00 5,6 C 4,2 C 1,3 C 85 % 987,0 hPa 0,0 l/m 0,00 h 1,00 h 21 W/m 35,6 km/h (5 Bft) 96,46 %
27.12.2020 12:00 5,5 C 3,8 C 1,0 C 86 % 985,0 hPa 1,2 l/m 0,00 h 1,00 h 16 W/m 37,3 km/h (5 Bft) 95,96 %
27.12.2020 13:00 5,0 C 3,3 C 1,1 C 90 % 983,0 hPa 2,0 l/m 0,00 h 1,00 h 13 W/m 37,1 km/h (5 Bft) 99,02 %
27.12.2020 14:00 4,9 C 3,5 C 1,1 C 91 % 981,4 hPa 0,4 l/m 0,00 h 0,73 h 14 W/m 34,4 km/h (5 Bft) 97,61 %
27.12.2020 15:00 5,3 C 4,0 C 1,5 C 89 % 980,4 hPa 0,0 l/m 0,00 h 0,63 h 10 W/m 31,6 km/h (5 Bft) 96,61 %
27.12.2020 16:00 5,3 C 4,5 C 1,6 C 87 % 979,5 hPa 0,0 l/m 0,00 h 0,37 h 0 W/m 18,1 km/h (3 Bft) 96,58 %
27.12.2020 17:00 5,6 C 4,7 C 2,0 C 86 % 978,5 hPa 0,0 l/m 0,00 h 0,63 h 0 W/m 9,6 km/h (2 Bft) 95,18 %
27.12.2020 18:00 5,2 C 3,5 C 1,3 C 88 % 977,8 hPa 0,6 l/m 0,00 h 0,97 h 0 W/m 9,8 km/h (2 Bft) 96,55 %
27.12.2020 19:00 4,5 C 2,8 C 1,1 C 91 % 977,3 hPa 1,0 l/m 0,00 h 1,00 h 0 W/m 2,8 km/h (1 Bft) 99,14 %
27.12.2020 20:00 4,2 C 2,8 C 1,1 C 93 % 976,9 hPa 1,6 l/m 0,00 h 0,97 h 0 W/m 3,5 km/h (1 Bft) 98,71 %
27.12.2020 21:00 4,0 C 2,8 C 1,1 C 94 % 977,0 hPa 1,0 l/m 0,00 h 1,00 h 0 W/m 2,1 km/h (1 Bft) 96,02 %
27.12.2020 22:00 4,3 C 3,0 C 1,3 C 94 % 977,2 hPa 0,6 l/m 0,00 h 0,63 h 0 W/m 7,8 km/h (2 Bft) 97,22 %
27.12.2020 23:00 4,3 C 3,3 C 1,6 C 94 % 977,3 hPa 0,0 l/m 0,00 h 0,00 h 0 W/m 2,8 km/h (1 Bft) 96,68 %
Min-Datum _ 25.12.20 25.12.20 25.12.20 27.12.20 27.12.20 - - - - 21.12.20 27.12.20
_ Min-Zeit 09:30 06:08 06:16 08:54 20:22 - - - - 00:00 17:00
Minimum _ 1,1 C 0,6 C -0,1 C 80 % 976,8 hPa - - - - 0,0 km/h (0 Bft) 39,39 %
Max-Datum _ 22.12.20 22.12.20 22.12.20 21.12.20 25.12.20 23.12.20 26.12.20 21.12.20 22.12.20 22.12.20 21.12.20
_ Max-Zeit 12:42 12:30 12:32 20:28 21:40 12:26 12:28 12:08 12:38 04:14 00:00
Maximum _ 14,6 C 17,2 C 13,8 C 100 % 1025,8 hPa 3,0 l/m 0,05 h 0,07 h 371 W/m 90,1 km/h
S-SO (10 Bft)
100,00 %
Durchschnitt _ 6,9 C 6,3 C 4,8 C 93 % 1011,6 hPa #29,0 l/m #3:50 h #28:26 h 42 W/m 12,5 km/h (3 Bft) 97,38 %
© 2020 W. Hausmann